DW7875 Weather Reports


Display with metric or nautical units.
time (UTC)temp
F
wind
direction
speed
MPH
gust
MPH
rain 1hr
in
rain 24hr
in
rain mn
in
humidity
%
barometer
mb
20260502213051 61 227 0.0 2.0 0.00 0.00 0.00 37 1011.1
20260502211552 61 3 0.0 2.0 0.00 0.00 0.00 38 1011.1
20260502210057 60 3 0.0 1.0 0.00 0.00 0.00 38 1011.1
20260502204558 60 3 0.0 2.0 0.00 0.00 0.00 36 1010.9
20260502203100 60 3 0.0 2.0 0.00 0.00 0.00 39 1011.0
20260502201546 60 3 0.0 2.0 0.00 0.00 0.00 38 1011.0
20260502200044 60 3 0.0 2.0 0.00 0.00 0.00 40 1011.0
20260502194548 60 3 0.0 2.0 0.00 0.00 0.00 44 1011.2
20260502193040 62 3 0.0 2.0 0.00 0.00 0.00 37 1011.3
20260502191541 62 313 0.0 2.0 0.00 0.00 0.00 41 1011.7
20260502190035 60 309 1.0 3.0 0.00 0.00 0.00 42 1012.0
20260502184539 60 355 1.0 3.0 0.00 0.00 0.00 41 1012.3
20260502183034 60 293 1.0 3.0 0.00 0.00 0.00 43 1012.4
20260502181536 60 281 1.0 2.0 0.00 0.00 0.00 45 1012.8
20260502163042 57 287 0.0 4.0 0.00 0.00 0.00 47 1013.6
20260502161521 57 302 0.0 3.0 0.00 0.00 0.00 47 1013.8
20260502151514 56 328 2.0 6.0 0.00 0.00 0.00 47 1014.4
20260502123002 51 286 2.0 5.0 0.00 0.00 0.00 55 1013.5
20260502121501 51 256 1.0 6.0 0.00 0.00 0.00 56 1013.6
20260502114602 50 359 1.0 6.0 0.00 0.00 0.00 56 1013.7
20260502113058 50 336 0.0 4.0 0.00 0.00 0.00 57 1013.8
20260502111555 50 18 2.0 8.0 0.00 0.00 0.00 56 1013.6
20260502110053 50 127 0.0 3.0 0.00 0.00 0.00 58 1013.3
20260502104550 50 6 0.0 4.0 0.00 0.00 0.00 58 1013.2
20260502103048 50 259 0.0 4.0 0.00 0.00 0.00 58 1013.1
20260502101546 50 4 1.0 7.0 0.00 0.00 0.00 59 1012.9
20260502071533 50 221 0.0 1.0 0.00 0.00 0.00 70 1011.5
20260502070045 50 221 0.0 1.0 0.00 0.00 0.00 70 1011.6
20260502064538 51 221 0.0 1.0 0.00 0.00 0.00 69 1011.7
20260502063028 52 221 0.0 1.0 0.00 0.00 0.00 69 1011.9
20260502061525 52 221 0.0 1.0 0.00 0.00 0.00 68 1012.1
20260502060022 52 221 0.0 0.0 0.00 0.00 0.00 67 1012.0
20260502054521 53 221 0.0 0.0 0.00 0.00 0.00 66 1012.0
20260502053019 53 221 0.0 0.0 0.00 0.00 0.00 65 1012.3
20260502051519 54 221 0.0 0.0 0.00 0.00 0.00 64 1012.5
20260502050019 54 221 0.0 2.0 0.00 0.00 0.00 64 1012.6
20260502044512 55 221 0.0 1.0 0.00 0.00 0.00 61 1012.2
20260502043009 55 221 0.0 2.0 0.00 0.00 0.00 60 1012.0
20260502041508 56 219 0.0 5.0 0.00 0.00 0.00 59 1011.9
20260502040007 56 212 1.0 4.0 0.00 0.00 0.00 60 1011.8
20260502034505 56 214 0.0 3.0 0.00 0.00 0.00 59 1011.7
20260502033012 56 158 1.0 4.0 0.00 0.00 0.00 60 1011.9
20260502031503 56 160 1.0 4.0 0.00 0.00 0.00 60 1011.7
20260502030003 56 212 1.0 5.0 0.00 0.00 0.00 59 1011.4
20260502024510 56 191 2.0 6.0 0.00 0.00 0.00 60 1011.6
20260502023003 56 124 1.0 4.0 0.00 0.00 0.00 62 1011.5
20260502021502 57 230 1.0 4.0 0.00 0.00 0.00 62 1011.8
20260502020001 57 150 1.0 3.0 0.00 0.00 0.00 62 1011.7
20260502014604 58 144 2.0 6.0 0.00 0.00 0.00 61 1011.4
20260502014510 58 144 1.0 6.0 0.00 0.00 0.00 63 1011.4
20260502013103 58 136 4.0 8.0 0.00 0.00 0.00 62 1011.2
20260502011558 58 139 4.0 8.0 0.00 0.00 0.00 59 1010.9
20260502004604 58 134 3.0 7.0 0.00 0.00 0.00 60 1011.0
20260502003056 58 123 4.0 7.0 0.00 0.00 0.00 59 1011.0
20260502001556 58 119 3.0 6.0 0.00 0.00 0.00 58 1011.0
20260502000106 58 130 4.0 7.0 0.00 0.00 0.00 57 1010.8
20260501234555 58 169 4.0 7.0 0.00 0.00 0.00 59 1010.6
20260501233054 58 134 4.0 7.0 0.00 0.00 0.00 57 1010.4
20260501231552 58 129 3.0 6.0 0.00 0.00 0.00 55 1010.8
20260501230053 59 141 2.0 5.0 0.00 0.00 0.00 53 1010.8
20260501224550 59 134 3.0 5.0 0.00 0.00 0.00 52 1010.7
20260501223150 60 141 2.0 5.0 0.00 0.00 0.00 52 1010.8
20260501221547 60 143 2.0 5.0 0.00 0.00 0.00 50 1010.8
20260501220055 61 136 3.0 6.0 0.00 0.00 0.00 47 1010.9
20260501214547 61 143 3.0 6.0 0.00 0.00 0.00 45 1010.8